TimeEST,TemperatureF,Dew PointF,Humidity,Sea Level PressureIn,VisibilityMPH,Wind Direction,Wind SpeedMPH,Gust SpeedMPH,PrecipitationIn,Events,Conditions,WindDirDegrees,DateUTC
12:15 AM,42.8,21.2,42,29.74,10.0,South,4.6,-,N/A,,Overcast,180,2013-01-20 05:15:00
12:35 AM,44.6,19.4,37,29.73,10.0,SSW,9.2,17.3,N/A,,Overcast,200,2013-01-20 05:35:00
1:15 AM,46.4,21.2,37,29.71,10.0,South,3.5,-,N/A,,Mostly Cloudy,170,2013-01-20 06:15:00
1:35 AM,44.6,23.0,43,29.70,10.0,SW,11.5,17.3,N/A,,Mostly Cloudy,220,2013-01-20 06:35:00
1:55 AM,44.6,23.0,43,29.70,10.0,SW,21.9,29.9,N/A,,Overcast,230,2013-01-20 06:55:00
2:15 AM,44.6,24.8,46,29.67,10.0,South,10.4,18.4,N/A,,Partly Cloudy,180,2013-01-20 07:15:00
3:15 AM,41.0,24.8,53,29.63,10.0,SE,8.1,-,N/A,,Clear,140,2013-01-20 08:15:00
3:35 AM,39.2,23.0,52,29.62,10.0,SE,8.1,-,N/A,,Clear,130,2013-01-20 08:35:00
3:55 AM,41.0,21.2,45,29.60,10.0,SSE,8.1,16.1,N/A,,Clear,160,2013-01-20 08:55:00
4:15 AM,42.8,19.4,39,29.58,10.0,South,8.1,-,N/A,,Clear,170,2013-01-20 09:15:00
4:35 AM,42.8,19.4,39,29.57,10.0,South,9.2,-,N/A,,Clear,170,2013-01-20 09:35:00
4:56 AM,44.6,19.4,37,29.54,10.0,South,9.2,16.1,N/A,,Clear,170,2013-01-20 09:56:00
5:15 AM,42.8,19.4,39,29.53,10.0,South,8.1,-,N/A,,Clear,170,2013-01-20 10:15:00
5:55 AM,42.8,21.2,42,29.51,10.0,South,11.5,-,N/A,,Clear,180,2013-01-20 10:55:00
6:15 AM,42.8,21.2,42,29.51,10.0,South,9.2,-,N/A,,Clear,180,2013-01-20 11:15:00
6:35 AM,42.8,21.2,42,29.50,10.0,South,6.9,-,N/A,,Clear,190,2013-01-20 11:35:00
6:55 AM,42.8,21.2,42,29.50,10.0,South,10.4,-,N/A,,Clear,190,2013-01-20 11:55:00
7:15 AM,42.8,21.2,42,29.49,10.0,SSW,10.4,21.9,N/A,,Clear,210,2013-01-20 12:15:00
7:35 AM,42.8,21.2,42,29.48,10.0,South,10.4,-,N/A,,Clear,180,2013-01-20 12:35:00
7:55 AM,42.8,23.0,46,29.47,10.0,South,9.2,19.6,N/A,,Partly Cloudy,190,2013-01-20 12:55:00
8:35 AM,44.6,23.0,43,29.46,10.0,South,12.7,21.9,N/A,,Overcast,180,2013-01-20 13:35:00
8:55 AM,44.6,23.0,43,29.47,10.0,SSW,11.5,31.1,N/A,,Overcast,210,2013-01-20 13:55:00
9:15 AM,44.6,24.8,46,29.48,10.0,SW,19.6,33.4,N/A,,Overcast,230,2013-01-20 14:15:00
9:35 AM,44.6,24.8,46,29.48,10.0,SW,23.0,40.3,N/A,,Overcast,230,2013-01-20 14:35:00
9:55 AM,42.8,28.4,57,29.53,10.0,West,24.2,31.1,N/A,,Mostly Cloudy,270,2013-01-20 14:55:00
10:15 AM,37.4,32.0,81,29.55,10.0,WSW,18.4,31.1,N/A,,Overcast,250,2013-01-20 15:15:00
10:35 AM,37.4,28.4,70,29.55,10.0,West,11.5,26.5,N/A,,Overcast,260,2013-01-20 15:35:00
10:55 AM,37.4,28.4,70,29.56,10.0,WSW,20.7,29.9,0.01,,Mostly Cloudy,250,2013-01-20 15:55:00
11:15 AM,37.4,28.4,70,29.56,10.0,WSW,16.1,25.3,N/A,,Overcast,240,2013-01-20 16:15:00
11:55 AM,39.2,21.2,49,29.54,10.0,WSW,23.0,38.0,N/A,,Scattered Clouds,240,2013-01-20 16:55:00
12:15 PM,37.4,21.2,52,29.56,3.0,WSW,23.0,47.2,N/A,,Mostly Cloudy,240,2013-01-20 17:15:00
12:35 PM,37.4,21.2,52,29.58,10.0,West,24.2,34.5,N/A,,Mostly Cloudy,260,2013-01-20 17:35:00
12:55 PM,37.4,15.8,41,29.57,10.0,WSW,25.3,41.4,N/A,,Mostly Cloudy,240,2013-01-20 17:55:00
1:15 PM,35.6,15.8,44,29.58,10.0,WSW,29.9,36.8,N/A,,Mostly Cloudy,240,2013-01-20 18:15:00
1:35 PM,35.6,14.0,41,29.59,10.0,West,24.2,40.3,N/A,,Scattered Clouds,270,2013-01-20 18:35:00
1:55 PM,35.6,12.2,38,29.60,10.0,West,19.6,38.0,N/A,,Partly Cloudy,260,2013-01-20 18:55:00
2:15 PM,35.6,12.2,38,29.61,10.0,West,23.0,38.0,N/A,,Clear,260,2013-01-20 19:15:00
2:35 PM,33.8,12.2,41,29.64,10.0,West,16.1,28.8,N/A,,Clear,280,2013-01-20 19:35:00
3:15 PM,30.2,12.2,47,29.68,10.0,West,18.4,31.1,N/A,,Mostly Cloudy,280,2013-01-20 20:15:00
3:35 PM,30.2,12.2,47,29.70,10.0,West,10.4,23.0,N/A,,Overcast,280,2013-01-20 20:35:00
4:15 PM,28.4,8.6,43,29.74,10.0,West,19.6,27.6,N/A,,Mostly Cloudy,270,2013-01-20 21:15:00
4:35 PM,28.4,10.4,47,29.74,10.0,West,21.9,38.0,N/A,,Mostly Cloudy,260,2013-01-20 21:35:00
4:55 PM,28.4,8.6,43,29.75,10.0,West,18.4,28.8,N/A,,Scattered Clouds,270,2013-01-20 21:55:00
5:15 PM,28.4,6.8,40,29.75,10.0,WSW,18.4,34.5,N/A,,Scattered Clouds,250,2013-01-20 22:15:00
5:35 PM,28.4,6.8,40,29.76,10.0,WSW,12.7,26.5,N/A,,Mostly Cloudy,250,2013-01-20 22:35:00
6:35 PM,26.6,10.4,51,29.79,10.0,West,17.3,29.9,N/A,,Mostly Cloudy,280,2013-01-20 23:35:00
6:55 PM,24.8,10.4,54,29.81,10.0,West,12.7,25.3,N/A,,Scattered Clouds,270,2013-01-20 23:55:00
7:15 PM,24.8,8.6,50,29.82,10.0,WNW,19.6,29.9,N/A,,Mostly Cloudy,290,2013-01-21 00:15:00
7:55 PM,24.8,3.2,40,29.86,10.0,West,25.3,38.0,N/A,,Partly Cloudy,280,2013-01-21 00:55:00
8:15 PM,23.0,3.2,43,29.85,10.0,West,20.7,34.5,N/A,,Mostly Cloudy,280,2013-01-21 01:15:00
8:35 PM,23.0,3.2,43,29.86,10.0,West,20.7,27.6,N/A,,Mostly Cloudy,280,2013-01-21 01:35:00
9:15 PM,21.2,-0.4,39,29.88,10.0,WNW,20.7,31.1,N/A,,Scattered Clouds,290,2013-01-21 02:15:00
9:35 PM,19.4,-0.4,42,29.89,10.0,West,16.1,27.6,N/A,,Partly Cloudy,280,2013-01-21 02:35:00
9:55 PM,19.4,-0.4,42,29.90,10.0,WNW,19.6,25.3,N/A,,Clear,300,2013-01-21 02:55:00
10:15 PM,19.4,-0.4,42,29.90,10.0,West,19.6,27.6,N/A,,Clear,280,2013-01-21 03:15:00
10:35 PM,19.4,-0.4,42,29.91,10.0,West,19.6,26.5,N/A,,Clear,280,2013-01-21 03:35:00
10:55 PM,17.6,-0.4,45,29.92,10.0,West,10.4,25.3,N/A,,Clear,280,2013-01-21 03:55:00
11:15 PM,17.6,-2.2,42,29.92,10.0,West,16.1,26.5,N/A,,Clear,280,2013-01-21 04:15:00
11:35 PM,17.6,-2.2,42,29.93,10.0,West,10.4,-,N/A,,Clear,280,2013-01-21 04:35:00